Theta_e
293 287 286 287 289 290 289 288 287 288 290 288 288 289 291 290 289 291 292 293 295 297 306 304 314 320 320 322 325 326 325 327 326 326 326 328 327 327 326 327 327 325 323 319
289 284 289 292 291 289 287 285 284 288 290 288 285 288 290 290 291 292 293 291 293 294 294 295 295 309 317 321 324 325 326 326 326 328 326 326 328 329 329 328 327 326 323 321
284 288 292 291 288 287 286 285 284 287 288 288 285 284 286 288 289 292 292 294 295 295 296 295 294 296 310 317 321 325 326 326 327 328 324 320 322 324 325 325 325 324 324 322
286 290 289 286 286 287 283 288 288 287 285 282 285 279 284 285 287 288 292 294 295 296 294 294 294 293 297 310 317 323 325 326 327 327 325 323 323 322 323 321 322 322 322 323
286 286 286 286 287 288 286 289 288 287 283 280 281 280 283 282 285 288 290 293 293 294 293 293 294 295 293 298 309 315 321 324 325 326 326 324 323 324 319 317 318 319 320 321
289 290 290 289 289 290 289 286 285 283 281 277 281 280 281 283 287 288 290 290 291 290 291 291 292 295 295 296 301 305 313 316 319 324 324 323 324 320 317 317 321 323 324 324
284 285 287 289 286 286 286 283 276 276 276 276 279 278 284 288 289 289 290 290 289 288 289 290 294 295 297 298 299 299 300 300 305 316 323 323 322 321 319 319 321 322 322 320
282 279 286 289 286 284 283 284 277 272 273 276 280 277 283 291 292 290 290 289 291 292 293 293 294 296 298 300 301 302 302 300 298 298 304 316 322 323 322 322 322 319 318 321
281 281 287 289 290 290 284 282 285 279 271 274 277 281 287 289 289 288 289 288 291 292 293 294 295 297 298 300 301 302 302 301 300 297 296 297 305 315 319 318 318 321 319 316
286 282 286 288 290 289 287 290 282 279 271 271 276 277 280 285 287 288 288 289 289 290 292 293 295 296 297 299 301 301 302 302 302 302 301 300 301 306 311 312 312 312 313 311
287 286 283 287 285 285 284 282 283 283 279 274 271 277 284 288 288 289 289 289 290 292 292 293 294 295 296 297 299 300 300 301 301 301 301 302 304 305 306 309 311 311 309 309
289 285 280 283 286 288 287 285 286 282 277 278 277 279 285 287 288 288 289 289 289 291 292 292 294 294 294 296 298 299 299 300 300 300 300 301 302 305 307 308 307 307 306 305
290 282 275 280 285 286 284 284 286 283 281 276 275 278 286 286 288 286 288 288 288 288 290 292 292 292 293 294 296 297 297 299 301 300 304 305 304 305 305 304 303 302 301 300
294 284 284 279 282 285 282 284 285 285 279 279 280 281 283 287 287 287 288 288 288 288 290 291 292 293 293 293 294 297 297 299 301 301 304 304 304 303 302 300 298 298 297 296
290 279 282 282 283 286 284 284 285 284 286 281 285 283 286 288 288 288 289 290 290 291 291 291 291 292 292 293 294 295 296 297 301 302 300 298 297 296 295 294 294 293 292 291
289 279 283 279 283 284 281 285 287 287 287 286 286 284 288 290 287 286 288 289 291 291 292 292 292 292 292 293 293 293 294 296 300 300 298 295 294 292 291 290 289 289 288 287
286 281 278 279 282 283 279 283 285 286 288 288 283 288 289 286 286 287 288 288 290 291 292 292 292 293 293 294 294 293 293 293 293 295 291 290 290 289 289 288 286 285 285 284
287 286 283 277 280 274 283 288 288 286 288 289 290 290 288 288 289 290 290 290 289 291 292 291 292 293 293 292 292 292 291 290 289 288 287 286 286 286 285 284 283 282 281 281
291 288 278 278 280 282 284 285 284 283 285 290 289 291 289 288 286 288 289 290 293 292 293 294 293 292 291 292 291 289 288 287 287 286 285 285 284 282 282 282 282 280 281 280
286 290 285 275 273 273 281 288 287 288 282 290 290 290 290 286 284 290 290 290 290 290 290 291 291 290 290 289 290 289 287 287 286 285 285 283 283 284 284 283 281 280 280 281
282 284 282 276 278 277 284 285 289 280 282 286 288 290 289 287 291 289 289 288 288 288 289 288 289 290 291 288 289 288 286 286 285 284 281 280 281 283 282 281 277 279 279 279
283 281 281 279 276 277 284 284 285 287 287 288 287 287 287 287 287 288 289 288 287 287 286 286 286 285 284 287 289 285 286 283 283 281 280 279 278 281 280 280 278 280 280 279
283 287 281 284 284 285 285 285 287 287 287 287 287 287 287 287 286 286 287 283 284 283 285 284 284 282 282 284 286 285 281 281 280 279 277 277 277 279 280 280 278 277 276 279
284 284 285 284 284 285 287 286 286 286 286 287 287 287 285 285 285 285 285 285 284 283 282 281 279 279 278 277 280 280 280 280 280 278 277 276 278 276 275 278 279 280 278 276
285 286 280 280 281 284 284 286 286 285 285 286 285 285 285 285 283 284 284 283 282 281 278 277 278 277 275 274 275 275 276 278 277 277 276 275 276 276 275 275 277 273 270 276
283 283 286 284 284 286 284 285 285 285 284 284 285 284 284 285 284 282 282 282 280 276 274 275 274 274 271 271 270 270 273 278 278 277 277 278 278 277 277 277 277 281 280 282
Wind_Speed
2 5 10 6 6 6 5 7 6 4 2 3 7 8 10 5 3 8 9 9 9 13 14 9 10 11 8 8 12 13 12 12 8 7 5 5 7 4 4 6 8 8 7 8
4 6 6 8 6 5 3 5 5 1 2 3 3 12 9 5 7 8 11 9 12 9 9 10 8 10 13 16 15 14 14 12 10 9 7 6 5 5 5 7 7 9 9 9
7 7 7 7 5 7 5 7 5 4 4 0 1 8 6 6 5 6 8 10 10 16 14 10 9 11 12 14 16 15 15 14 13 13 4 1 0 2 3 3 5 7 9 8
5 5 9 5 6 6 6 5 4 5 6 5 4 6 6 4 8 6 11 13 17 15 8 9 9 8 11 16 10 11 12 13 12 12 9 11 10 11 8 5 4 6 8 10
9 9 7 6 7 7 8 5 6 3 3 1 2 2 8 2 6 10 14 17 13 12 10 11 11 10 7 6 8 7 9 11 11 12 13 11 10 8 3 3 5 5 6 7
7 3 7 12 4 11 7 7 7 5 3 4 7 7 6 5 9 7 6 8 10 9 10 8 6 5 3 3 6 7 8 7 8 11 11 12 12 8 6 5 7 7 7 6
3 3 2 4 7 4 4 8 1 2 3 6 1 2 9 7 11 8 8 7 7 5 5 6 8 7 6 6 6 6 8 6 7 7 11 12 13 11 12 9 8 7 6 4
12 7 9 5 7 10 6 10 7 7 4 5 3 9 8 13 11 7 8 7 1 3 2 4 6 6 7 7 6 7 6 5 7 7 8 7 10 7 8 8 7 5 4 5
8 5 2 4 5 12 6 8 6 8 3 3 6 7 12 9 11 7 7 5 8 6 5 7 5 4 4 5 5 6 6 4 5 6 5 6 6 6 7 6 6 5 5 4
8 6 0 3 5 1 11 10 4 2 5 5 5 4 6 7 10 7 7 9 7 5 7 5 5 5 4 4 4 6 6 6 5 5 5 5 5 5 5 5 6 4 2 3
5 7 3 5 8 9 4 5 2 5 6 6 2 8 10 14 10 11 10 8 8 9 7 6 6 4 3 2 2 3 4 5 5 4 3 4 3 4 4 4 4 4 4 4
1 7 5 8 1 1 4 8 9 8 6 2 3 8 3 10 6 5 6 8 8 8 7 7 7 6 5 5 5 6 5 4 3 4 4 4 4 5 5 5 5 5 6 5
8 2 5 5 5 3 7 5 5 6 3 8 7 7 4 5 8 5 7 7 7 7 6 6 6 7 7 7 6 5 3 4 5 5 5 5 4 5 6 6 6 6 6 7
7 3 11 15 13 9 5 8 5 7 4 4 15 4 2 4 6 4 3 2 4 6 7 7 7 8 7 6 7 6 6 5 5 6 5 5 5 6 5 6 6 7 6 7
8 6 3 2 1 8 7 11 12 10 24 12 24 13 9 10 10 9 6 5 5 7 8 8 8 7 8 7 7 6 6 6 5 6 6 5 6 6 6 7 6 6 6 6
4 0 5 2 2 6 1 14 23 29 19 21 13 22 8 9 4 5 6 6 8 8 9 10 9 9 10 9 9 7 7 7 6 6 6 6 6 6 6 7 6 6 6 7
9 7 4 9 4 5 9 19 18 14 18 19 18 24 11 7 9 10 10 9 11 11 11 11 13 11 10 12 9 10 8 6 6 6 6 6 6 6 5 5 6 6 5 5
12 9 3 4 4 6 9 9 16 19 17 24 25 12 8 9 11 12 14 14 13 13 13 11 9 10 10 8 8 7 7 7 7 6 7 6 6 6 6 6 5 6 4 4
11 13 3 6 13 10 15 10 7 13 30 21 27 21 7 5 2 11 8 14 16 12 13 12 9 5 7 10 8 9 8 9 8 8 8 8 7 7 7 7 6 5 5 3
7 13 11 3 7 19 6 17 9 7 25 13 21 23 17 9 11 16 14 11 12 12 7 8 6 5 8 9 12 13 11 10 10 9 8 7 9 10 10 9 8 4 4 5
9 10 17 5 8 9 7 4 11 15 7 7 9 15 10 13 14 2 2 3 2 4 6 1 6 9 10 11 13 12 10 10 7 8 7 5 5 8 8 8 4 6 7 6
14 12 9 4 7 20 8 6 16 4 2 3 4 5 8 7 1 3 5 4 3 4 2 4 6 4 4 9 12 12 14 10 10 9 8 7 7 6 7 9 5 7 9 8
10 13 10 16 13 2 6 2 2 2 1 3 2 1 2 1 2 2 3 1 1 2 1 2 5 6 3 4 7 11 7 11 11 11 8 6 7 6 6 8 8 6 6 7
3 3 5 5 6 6 8 3 1 0 2 3 4 4 2 1 1 2 1 1 2 3 2 3 4 3 3 3 4 4 9 10 12 10 9 7 8 6 4 3 3 6 6 5
3 8 7 4 1 4 1 2 4 3 5 6 5 4 4 4 3 3 1 1 2 3 2 3 5 3 3 2 5 4 6 9 8 8 8 7 6 5 5 4 3 3 1 3
3 5 9 7 6 4 2 6 5 7 5 6 6 5 6 5 5 3 3 3 1 2 2 3 3 5 4 5 4 3 4 8 11 9 8 7 7 6 5 6 5 6 7 8
Wind_Direction
153 144 201 191 172 164 165 172 193 192 194 168 222 247 253 236 209 234 237 224 226 234 235 226 215 211 205 200 206 205 200 201 185 192 183 192 204 193 192 193 193 190 194 200
88 218 202 189 193 157 154 170 212 57 141 141 305 265 248 215 234 215 225 228 231 236 239 240 212 205 205 209 208 207 209 201 199 203 207 198 194 198 195 197 194 190 191 194
158 205 173 175 175 157 179 180 180 202 130 186 22 286 269 254 243 238 242 232 235 229 234 236 220 207 210 211 207 204 202 199 197 202 177 100 159 130 177 190 200 197 193 199
186 205 159 164 208 149 193 206 159 146 131 215 164 270 269 251 265 236 245 237 239 234 231 225 219 206 199 219 209 206 196 197 198 187 185 199 204 215 217 193 187 194 196 198
214 154 143 174 189 162 217 138 161 140 122 121 226 212 266 161 273 261 240 237 241 234 217 221 218 217 206 196 198 187 182 192 192 188 193 195 207 216 204 187 192 201 201 203
190 189 158 185 159 169 138 82 53 58 98 251 209 174 257 202 209 246 238 237 245 247 232 233 213 142 149 166 174 173 171 173 177 185 193 196 207 196 184 187 208 213 212 212
128 197 158 133 104 78 116 124 29 287 251 222 343 220 242 236 250 226 244 274 291 290 218 207 185 160 148 151 159 153 157 164 170 181 193 199 208 203 202 193 207 209 206 194
167 216 164 163 164 159 173 163 155 187 218 223 121 233 243 229 256 263 247 248 298 253 225 202 184 171 162 161 153 151 162 175 183 193 207 210 211 210 210 203 202 201 204 209
154 211 358 138 140 154 201 201 160 103 19 59 214 282 301 246 259 235 245 204 213 224 207 198 183 178 166 159 166 164 161 169 198 220 220 222 220 206 202 195 194 203 196 221
179 136 233 162 122 180 190 152 165 9 145 247 264 260 234 256 233 206 223 221 221 210 227 222 195 185 193 185 162 148 151 144 144 165 190 209 216 216 210 187 198 199 176 147
138 115 219 123 206 167 143 178 133 133 159 173 251 259 220 231 204 206 221 205 198 216 212 204 212 206 183 121 153 140 150 165 159 132 121 120 129 160 151 148 139 132 111 126
160 110 152 187 233 256 209 182 182 192 209 246 150 270 254 252 249 208 244 203 209 214 197 193 193 184 186 192 187 193 191 158 146 141 114 109 111 105 97 102 101 104 100 80
181 219 88 32 336 225 211 172 177 101 84 202 164 249 338 299 307 230 243 225 213 203 197 195 185 199 201 204 202 196 178 176 158 133 135 145 129 115 117 107 99 97 106 94
108 127 178 195 216 130 198 181 157 151 207 171 242 232 258 264 261 263 205 197 202 207 197 199 205 208 204 202 196 191 194 184 159 142 147 148 131 121 120 111 105 99 96 100
134 154 124 2 168 161 164 175 181 196 223 189 250 221 207 217 211 219 209 180 193 217 216 216 213 205 204 204 200 197 191 178 174 146 139 133 116 108 106 103 102 105 104 104
158 262 112 311 101 72 211 195 196 213 218 243 256 270 161 230 219 235 226 207 225 236 233 222 213 208 207 199 198 186 178 181 175 161 147 132 128 131 126 124 123 115 113 112
151 123 96 228 89 66 284 218 206 215 212 226 234 245 168 196 216 220 221 210 217 223 227 223 217 209 202 202 182 188 175 154 159 149 144 144 138 135 127 113 109 106 100 85
160 162 93 140 96 205 256 173 203 215 227 225 248 238 183 195 211 210 210 208 219 229 233 230 215 213 206 171 170 144 142 147 151 159 153 148 145 138 128 113 113 103 84 99
189 173 155 174 212 281 270 236 171 186 246 229 241 241 207 215 331 250 201 220 224 223 225 227 223 197 147 166 152 144 152 153 155 165 164 158 142 138 136 126 128 102 118 96
83 175 181 153 167 219 247 214 167 89 262 218 227 237 223 137 235 259 214 218 227 227 225 223 192 154 154 166 155 155 166 158 178 168 163 152 158 155 153 150 145 133 129 136
158 173 204 196 232 265 239 132 132 169 254 229 216 229 201 197 226 154 211 215 245 238 235 164 177 186 187 154 155 158 149 177 146 139 133 150 163 151 151 133 111 129 125 120
169 162 190 178 225 251 167 116 183 206 219 238 201 189 190 221 237 216 237 261 230 226 170 156 152 159 146 152 153 155 173 151 142 141 143 155 148 129 136 135 131 143 140 129
175 191 172 187 207 231 216 141 66 102 139 293 275 108 149 192 249 255 267 239 288 271 67 54 138 130 122 148 162 159 158 143 139 137 143 139 121 127 142 146 143 139 133 148
200 159 173 110 193 181 202 158 133 54 124 97 17 18 60 16 33 311 348 38 53 38 52 60 73 107 128 53 67 82 139 142 146 143 138 128 133 132 130 119 136 150 155 143
183 141 153 284 63 98 110 155 122 75 73 86 68 59 48 42 8 346 301 212 155 133 101 106 108 108 104 75 91 103 128 140 125 123 131 132 133 140 122 98 142 142 302 157
189 165 183 217 171 136 155 130 120 104 91 68 80 65 59 57 83 53 17 355 19 39 28 79 92 123 112 107 107 102 128 145 143 146 155 159 149 140 138 137 126 137 138 146